Location: B
(0.0000°N, 0.0000°E)
Time: 07:20:36
(UTC+02:00)

Cosmos 1025 Rocket - Visible Passes

Search period start: 24 June 2018 00:00
Search period end: 04 July 2018 00:00
Orbit: 594 x 618 km, 82.5° (Epoch: 23 June)

Date Brightness Start Highest point End Pass type
(mag) Time Alt. Az. Time Alt. Az. Time Alt. Az.
25 Jun 6.0 06:35:59 10° NE 06:38:27 15° E 06:40:54 10° ESE visible
26 Jun 5.0 06:48:01 10° NNE 06:51:45 30° E 06:55:29 10° SSE visible
27 Jun 3.5 07:00:50 10° N 07:05:03 63° E 07:09:16 10° SSE visible
28 Jun 3.0 07:14:09 10° NNW 07:18:20 60° W 07:22:33 10° S visible
29 Jun 3.9 07:27:58 10° NNW 07:31:38 29° W 07:35:20 10° SSW visible
30 Jun 5.6 06:04:34 10° NE 06:07:37 19° E 06:10:42 10° SE visible
01 Jul 4.3 06:16:58 10° NNE 06:20:56 39° E 06:24:55 10° SSE visible
02 Jul 2.9 06:29:58 10° N 06:34:14 83° E 06:38:30 10° S visible
03 Jul 3.2 06:43:27 10° NNW 06:47:31 45° W 06:49:27 27° SSW visible
